Flag for USA

Past Weather in Columbus Junction Gas Storage Area, Iowa, USA — Yesterday and Last 2 Weeks

Currently: 28 °F. Ice fog. (Weather station: Fair Field, USA). See more current weather

Past Weather in Columbus Junction Gas Storage Area — Graph

°F

Columbus Junction Gas Storage Area Temperature Yesterday

Maximum temperature yesterday: 32 °F (at 10:15 am)
Minimum temperature yesterday: 28 °F (at 2:15 am)
Average temperature yesterday: 30 °F

High & Low Weather Summary for the Past Weeks

 TemperatureHumidityPressure
High43 °F (Jan 20, 3:55 pm)100% (Jan 10, 3:15 am)30.42 "Hg (Jan 10, 3:15 am)
Low5 °F (Jan 23, 2:15 am)49% (Jan 21, 12:15 pm)29.27 "Hg (Jan 15, 6:35 am)
Average28 °F89%29.97 "Hg
* Reported Jan 10 3:15 am — Jan 25 3:55 am, Columbus Junction Gas Storage Area. Weather by CustomWeather, © 2021

Note: Actual official high and low records may vary slightly from our data, if they occured in-between our weather recording intervals... More about our weather records

Columbus Junction Gas Storage Area Weather History for the Previous 24 Hours

Scroll right to see more
 ConditionsComfort  
Time TempWeatherWind HumidityBarometerVisibility
3:55 am
Mon, Jan 25
28 °FIce fog.13 mph100%30.01 "Hg6 mi
3:35 am28 °FIce fog.14 mph100%30.00 "Hg5 mi
3:15 am28 °FIce fog.13 mph100%30.04 "Hg6 mi
2:55 am28 °FIce fog.10 mph100%30.02 "Hg6 mi
2:35 am28 °FIce fog.13 mph100%30.02 "Hg6 mi
2:15 am28 °FIce fog.12 mph100%30.04 "Hg6 mi
1:35 am28 °FIce fog.10 mph100%30.05 "Hg6 mi
12:55 am28 °FOvercast.14 mph100%30.04 "Hg7 mi
12:35 am28 °FOvercast.12 mph100%30.06 "Hg7 mi
12:15 am28 °FOvercast.8 mph100%30.08 "Hg7 mi
11:55 pm
Sun, Jan 24
28 °FOvercast.8 mph100%30.09 "Hg8 mi
11:35 pm28 °FOvercast.9 mph100%30.08 "Hg7 mi
11:15 pm28 °FMostly cloudy.10 mph100%30.07 "Hg8 mi
10:55 pm28 °FMostly cloudy.7 mph100%30.08 "Hg8 mi
10:35 pm28 °FOvercast.9 mph100%30.07 "Hg8 mi
10:15 pm28 °FOvercast.8 mph100%30.07 "Hg8 mi
9:55 pm28 °FOvercast.9 mph100%30.07 "Hg8 mi
9:35 pm28 °FOvercast.9 mph100%30.06 "Hg9 mi
9:15 pm28 °FOvercast.10 mph100%30.06 "Hg8 mi
8:55 pm28 °FOvercast.10 mph100%30.07 "Hg8 mi
8:35 pm28 °FOvercast.9 mph100%30.07 "Hg7 mi
8:15 pm28 °FOvercast.10 mph100%30.07 "Hg8 mi
7:35 pm28 °FOvercast.12 mph100%30.07 "Hg8 mi
6:55 pm28 °FOvercast.8 mph100%30.08 "Hg8 mi
6:35 pm30 °FOvercast.9 mph100%30.08 "Hg8 mi
5:55 pm30 °FOvercast.8 mph100%30.08 "Hg10 mi
5:35 pm30 °FOvercast.8 mph100%30.09 "Hg8 mi
5:15 pm30 °FOvercast.8 mph100%30.09 "Hg8 mi
4:55 pm30 °FMostly cloudy.9 mph100%30.08 "Hg8 mi
4:35 pm30 °FMostly cloudy.8 mph100%30.07 "Hg9 mi
4:15 pm30 °FMore clouds than sun.9 mph100%30.07 "Hg9 mi
3:55 pm32 °FCloudy.9 mph100%30.06 "Hg10 mi
3:35 pm32 °FMore clouds than sun.10 mph100%30.05 "Hg10 mi
3:15 pm32 °FMore clouds than sun.12 mph100%30.04 "Hg10 mi
2:55 pm32 °FOvercast.10 mph100%30.05 "Hg10 mi
2:35 pm32 °FOvercast.10 mph100%30.05 "Hg9 mi
2:15 pm32 °FMore clouds than sun.10 mph100%30.04 "Hg10 mi
1:35 pm32 °FMostly cloudy.10 mph100%30.04 "Hg10 mi
1:15 pm32 °FOvercast.7 mph93%30.04 "Hg10 mi
12:55 pm32 °FOvercast.9 mph100%30.05 "Hg10 mi
12:15 pm32 °FOvercast.6 mph100%30.06 "Hg10 mi
11:55 am32 °FOvercast.7 mph100%30.07 "Hg10 mi
11:35 am32 °FOvercast.5 mph100%30.07 "Hg10 mi
11:15 am32 °FOvercast.No wind93%30.07 "Hg10 mi
10:55 am32 °FOvercast.5 mph93%30.06 "Hg10 mi
10:35 am32 °FOvercast.5 mph100%30.06 "Hg10 mi
10:15 am32 °FOvercast.3 mph100%30.06 "Hg10 mi
9:55 am30 °FMore clouds than sun.6 mph100%30.05 "Hg10 mi
9:35 am30 °FMore clouds than sun.No wind100%30.05 "Hg10 mi
9:15 am30 °FMore clouds than sun.No wind100%30.04 "Hg10 mi
8:55 am30 °FOvercast.5 mph100%30.03 "Hg10 mi
8:35 am30 °FOvercast.No wind100%30.03 "Hg10 mi
8:15 am30 °FOvercast.No wind100%30.02 "HgN/A
7:55 am30 °FMostly cloudy.No wind100%30.02 "Hg10 mi
7:35 am30 °FOvercast.5 mph100%30.00 "Hg10 mi
7:15 am28 °FOvercast.6 mph100%30.00 "Hg10 mi
6:55 am28 °FOvercast.3 mph100%30.00 "Hg10 mi
6:35 am28 °FOvercast.5 mph100%30.00 "Hg10 mi
6:15 am28 °FMostly cloudy.3 mph100%30.00 "Hg10 mi
5:55 am28 °FMostly cloudy.5 mph100%30.00 "Hg10 mi
5:35 am28 °FMostly cloudy.5 mph100%30.00 "Hg10 mi
5:15 am28 °FOvercast.No wind100%30.00 "Hg10 mi
Weather by CustomWeather, © 2021

See weather overview